This is the latest recevied weather packets stored in our database for station/object DH1NAI-6. If no packets are shown the sender has not sent any weather packets the latest 10 day(s).
| Time | Temp. | Humidity | Pressure | Rain* | Wind** | Luminosity | Snow |
|---|---|---|---|---|---|---|---|
| 1777643891 | 18.33° C | 42% | 1023.7 hPa | 0 mm | - | 148 W/m² | - |
| 1777643283 | 19.44° C | 41% | 1024.1 hPa | 0 mm | - | 151 W/m² | - |
| 1777642675 | 18.89° C | 39% | 1023.9 hPa | 0 mm | - | 165 W/m² | - |
| 1777642067 | 18.33° C | 42% | 1024.2 hPa | 0 mm | - | 168 W/m² | - |
| 1777641459 | 18.33° C | 42% | 1024 hPa | 0 mm | - | 171 W/m² | - |
| 1777640852 | 17.78° C | 43% | 1024.3 hPa | 0 mm | - | 173 W/m² | - |
| 1777640243 | 18.33° C | 44% | 1024.6 hPa | 0 mm | - | 176 W/m² | - |
| 1777639636 | 17.78° C | 46% | 1024.5 hPa | 0 mm | - | 181 W/m² | - |
| 1777639027 | 17.78° C | 44% | 1024.6 hPa | 0 mm | - | 171 W/m² | - |
| 1777638420 | 18.33° C | 45% | 1024.6 hPa | 0 mm | - | 184 W/m² | - |
| 1777637811 | 17.22° C | 45% | 1024.9 hPa | 0 mm | - | 182 W/m² | - |
| 1777637204 | 17.78° C | 46% | 1025.1 hPa | 0 mm | - | 174 W/m² | - |
| 1777636591 | 17.22° C | 45% | 1024.8 hPa | 0 mm | - | 182 W/m² | - |
| 1777635988 | 17.22° C | 49% | 1025.1 hPa | 0 mm | - | 180 W/m² | - |
| 1777635379 | 17.78° C | 44% | 1025.2 hPa | 0 mm | - | 185 W/m² | - |
| 1777634755 | 16.67° C | 47% | 1025.2 hPa | 0 mm | - | 184 W/m² | - |
| 1777634132 | 17.22° C | 48% | 1025.2 hPa | 0 mm | - | 177 W/m² | - |
| 1777633523 | 16.67° C | 50% | 1025.4 hPa | 0 mm | - | 185 W/m² | - |
| 1777632916 | 16.67° C | 49% | 1025.3 hPa | 0 mm | - | 184 W/m² | - |
| 1777632307 | 16.67° C | 49% | 1025.2 hPa | 0 mm | - | 178 W/m² | - |
| 1777631700 | 16.11° C | 51% | 1025.7 hPa | 0 mm | - | 176 W/m² | - |
| 1777631091 | 16.11° C | 51% | 1025.5 hPa | 0 mm | - | 174 W/m² | - |
| 1777630484 | 15.56° C | 51% | 1025.5 hPa | 0 mm | - | 181 W/m² | - |
| 1777629871 | 15.56° C | 51% | 1025.7 hPa | 0 mm | - | 184 W/m² | - |
| 1777629268 | 15° C | 52% | 1025.7 hPa | 0 mm | - | 185 W/m² | - |
* Rain latest hour (hover to see other rain measurements)
** Current wind speed in m/s (hover to see current wind gust speed)